RH
66 52 52 56 65 84 86 89 96 99 98 92 94 90 84 78 73 66 58 54 54 46 46 46 43 38 37 46 49 59 57 62 68 72 76 81 84 94 96 94 99 99 98 98
66 41 42 61 48 37 48 67 71 73 77 77 84 81 76 72 72 56 46 38 36 34 33 36 32 36 40 42 48 52 52 58 64 69 71 74 80 86 93 94 94 96 97 99
73 45 53 73 70 48 37 43 58 70 52 77 86 79 74 72 60 44 36 30 32 30 28 29 34 33 40 44 42 46 52 51 55 66 65 71 76 88 91 92 94 96 97 97
86 70 85 46 31 27 35 36 37 48 48 52 55 57 58 56 48 36 28 32 34 34 34 35 37 39 44 44 43 49 52 52 54 58 61 62 73 77 88 92 94 95 97 98
90 80 56 41 42 46 48 48 36 40 38 38 43 43 53 46 43 43 39 37 36 38 42 42 44 43 41 40 45 48 51 53 52 56 57 63 74 84 92 95 95 96 99 99
87 84 78 95 59 34 37 80 42 41 45 44 48 78 68 44 45 48 40 35 34 34 34 35 36 39 42 47 48 47 46 52 53 54 62 65 75 87 94 95 96 100 100 100
94 92 75 72 49 39 62 92 56 49 52 49 56 54 47 44 49 47 42 40 41 40 42 42 41 43 46 50 51 50 53 54 56 57 63 70 79 96 100 100 100 100 100 100
95 96 93 68 56 82 89 74 48 48 52 53 52 48 51 49 50 46 48 48 45 47 47 48 47 48 50 52 51 51 51 53 58 62 65 72 97 100 100 100 100 100 100 100
87 96 90 86 68 51 53 56 51 50 49 56 60 58 55 54 52 56 55 57 55 54 59 61 63 58 63 64 59 59 58 64 72 71 77 96 100 100 100 100 100 100 100 100
87 92 94 96 69 62 47 50 47 46 52 57 62 61 62 63 61 62 60 60 58 67 69 67 64 63 68 66 64 66 68 69 73 86 97 99 100 99 99 99 100 99 99 99
92 95 90 76 65 52 49 50 51 50 54 55 56 60 63 65 64 66 63 59 59 66 71 76 72 73 72 71 70 74 77 78 77 75 92 98 98 98 99 99 98 98 98 99
90 63 58 52 49 47 50 50 51 53 55 58 65 70 70 74 71 70 76 74 75 81 86 80 76 78 74 73 77 81 76 74 81 85 84 97 97 99 99 99 99 99 100 99
50 41 44 49 44 39 47 47 49 53 60 67 66 70 77 84 82 83 78 79 88 96 88 87 86 79 78 76 80 88 93 84 74 82 86 91 98 98 99 99 99 99 98 98
38 41 48 40 45 44 46 48 51 53 59 66 66 75 82 82 87 88 90 96 97 97 95 98 92 95 89 94 97 97 97 97 95 86 86 96 97 100 99 98 98 99 99 98
68 65 45 43 41 44 51 56 61 65 69 72 76 77 78 89 90 91 98 98 97 98 98 98 97 97 97 97 98 98 98 97 97 97 97 98 98 99 99 99 98 98 99 99
68 70 49 50 50 52 60 64 71 76 73 70 75 81 83 85 84 86 94 98 99 98 98 97 97 98 98 98 98 99 98 99 99 98 98 98 99 98 98 98 98 98 98 98
62 61 58 60 59 61 65 67 70 73 75 78 85 84 87 94 92 86 89 93 98 98 99 99 98 98 98 99 100 99 99 99 99 99 99 99 98 98 98 98 98 99 99 98
48 50 54 54 60 68 73 75 78 78 81 84 89 92 94 95 95 92 94 95 98 90 95 98 98 98 98 99 99 98 99 99 99 99 99 99 99 98 98 98 98 98 99 99
51 53 54 58 73 78 82 85 83 78 84 92 95 95 95 93 93 95 96 96 96 91 90 97 98 98 98 98 98 98 99 99 98 98 98 99 98 98 98 98 98 99 98 99
64 66 70 76 76 80 84 85 93 95 81 88 94 95 95 93 92 95 96 94 98 93 90 91 92 97 98 98 98 98 98 99 99 99 98 99 98 98 98 98 98 99 99 98
79 78 80 82 88 92 94 96 95 98 88 83 93 95 95 94 92 94 98 97 90 90 90 92 89 96 98 98 98 99 99 99 99 99 99 99 98 98 98 98 98 97 98 98
87 90 92 93 94 94 93 96 95 94 95 88 83 86 93 91 91 98 98 98 91 92 94 94 94 98 98 98 98 98 98 98 98 98 97 96 96 96 96 96 97 97 97 97
86 86 85 89 89 86 88 89 93 95 97 91 91 89 88 90 93 99 98 92 96 95 97 97 98 98 98 99 99 98 98 98 98 98 98 98 97 97 97 98 98 98 98 98
78 74 74 75 80 83 86 92 87 88 94 96 93 93 99 99 94 99 99 94 92 97 99 97 99 98 99 99 99 99 98 98 98 99 98 98 98 98 98 98 98 98 99 99
66 68 70 72 76 84 75 76 80 83 91 99 99 98 94 98 99 99 99 98 93 96 99 99 99 98 99 99 99 99 99 99 98 96 96 98 98 98 98 98 98 98 98 98
71 74 77 73 78 82 84 86 89 90 94 99 99 99 99 99 99 98 99 97 97 98 100 97 99 99 99 99 98 98 98 98 98 98 98 98 97 97 97 97 97 97 97 97
80 84 85 87 92 94 95 92 96 98 98 98 97 96 97 96 97 98 99 100 99 100 99 98 99 99 99 99 99 98 98 98 98 98 98 97 97 98 97 97 97 97 96 97
Wind_Speed
9 10 10 9 5 3 1 3 2 1 5 5 7 9 8 7 7 8 7 6 5 4 2 4 4 1 4 3 6 2 2 1 3 5 5 5 7 4 3 5 4 5 8 9
4 10 9 6 10 4 4 2 5 9 2 11 12 4 7 8 7 7 7 4 7 2 3 3 4 2 2 1 3 3 5 5 4 4 4 3 6 5 2 2 3 2 4 6
4 11 10 6 3 2 3 7 1 4 4 9 10 11 5 11 3 7 6 7 6 3 1 2 3 3 4 3 3 4 6 5 6 6 5 6 4 3 4 4 1 2 2 5
4 4 4 5 1 6 16 20 13 14 12 10 11 12 12 10 8 6 6 6 4 1 3 6 5 5 5 6 6 6 6 6 6 6 5 5 5 6 4 3 4 4 3 2
2 3 8 7 7 7 12 16 15 16 16 14 15 14 10 10 8 6 5 4 3 5 6 6 6 7 6 6 6 6 7 8 7 6 7 6 6 6 4 2 3 3 4 5
3 2 4 4 15 15 5 7 10 14 15 13 12 7 4 7 7 9 10 8 8 8 6 8 8 7 7 7 7 8 8 9 9 8 8 7 7 6 4 4 4 2 4 5
2 2 6 7 8 13 4 1 4 11 9 10 6 3 3 7 7 7 7 9 11 9 7 6 7 8 9 8 8 9 8 8 8 8 8 7 7 5 5 3 1 2 4 4
1 3 3 11 7 5 3 2 6 8 7 6 5 5 5 6 7 7 7 9 10 9 8 7 9 9 12 12 11 12 12 9 8 8 7 6 7 4 4 5 4 4 4 5
3 2 4 5 5 4 5 7 7 8 8 8 7 5 5 5 5 5 6 7 9 11 10 9 7 10 13 14 13 14 14 12 8 9 7 6 8 7 3 5 4 4 4 5
1 5 9 11 7 14 6 8 9 8 9 8 7 8 7 7 7 4 2 5 8 9 11 12 9 11 12 15 15 16 17 15 12 6 7 8 5 6 5 6 5 5 5 6
4 5 4 7 3 2 9 9 11 9 7 6 6 7 9 9 10 9 9 9 10 12 13 13 14 15 14 15 14 15 16 16 15 12 8 9 10 8 7 6 7 6 7 6
3 3 3 1 6 7 9 7 6 4 5 9 10 7 7 6 6 7 9 9 10 10 11 14 16 17 19 18 15 16 17 15 13 11 9 8 8 4 4 6 11 10 9 7
3 5 4 8 6 8 8 7 7 7 7 6 6 5 6 8 8 10 11 11 10 10 12 13 14 18 17 19 18 17 17 17 13 13 11 11 9 8 6 2 6 11 12 13
5 3 5 7 4 7 8 8 8 7 6 5 7 7 8 10 9 11 11 10 11 12 13 13 15 17 17 16 16 17 18 22 15 12 11 9 10 8 7 8 7 4 7 10
8 12 3 6 7 7 9 7 6 5 5 6 6 9 10 12 11 13 10 10 11 10 11 13 15 17 16 15 14 15 14 13 14 12 11 10 9 9 8 9 9 7 6 5
6 8 6 7 6 6 7 6 5 5 7 9 8 9 10 10 11 11 9 9 9 10 12 14 15 16 16 14 12 9 10 10 6 7 8 9 8 8 8 9 10 10 8 9
6 6 5 4 5 5 6 4 3 5 7 8 8 9 10 9 9 11 11 9 8 9 10 13 15 16 16 13 10 7 6 6 6 5 5 7 8 8 8 9 9 8 7 7
5 4 5 4 4 5 6 6 6 6 5 6 6 8 8 8 9 10 11 12 7 7 7 12 15 16 15 14 10 7 6 6 5 6 6 7 7 7 8 9 9 10 8 8
6 7 6 8 7 6 5 5 3 3 5 3 5 7 7 9 9 10 8 10 6 10 12 11 17 15 14 14 11 7 7 7 7 6 7 10 9 8 9 10 10 9 9 9
6 7 7 5 4 3 3 3 4 5 5 4 5 6 7 8 9 9 9 8 5 6 10 10 11 12 12 12 12 7 8 8 8 8 7 8 9 9 9 12 10 9 9 9
6 6 6 4 4 3 4 3 4 6 5 4 5 6 7 9 9 8 6 5 8 8 9 8 8 9 7 8 8 6 6 7 8 8 8 8 9 9 9 9 9 9 9 8
5 6 5 3 4 5 6 6 7 7 5 5 5 5 5 7 7 7 4 3 5 8 7 6 6 10 8 9 6 7 8 8 7 7 7 8 8 8 8 8 8 8 7 7
6 6 6 4 5 7 6 6 5 5 7 9 6 4 4 4 4 4 3 4 4 6 5 5 8 10 10 6 6 6 7 8 7 7 7 7 8 8 7 7 7 7 6 6
5 5 5 7 7 6 5 5 6 6 6 9 7 5 3 3 6 2 2 3 6 6 4 5 6 9 7 5 5 5 6 6 6 7 7 8 7 7 6 6 6 5 5 6
4 5 6 7 6 4 6 7 6 8 8 5 5 3 4 2 1 3 2 2 4 4 3 6 7 7 4 4 4 5 5 5 5 6 6 6 6 6 6 5 5 5 6 5
5 4 4 6 4 5 6 6 6 5 7 3 3 3 2 2 0 2 2 2 2 3 2 4 4 3 4 4 5 5 5 5 5 5 5 5 5 5 5 5 5 5 5 5
5 5 4 5 4 4 6 9 8 6 6 4 3 3 4 4 3 3 4 2 1 1 1 2 3 3 3 3 3 3 3 4 5 4 4 5 5 5 5 4 4 4 4 4
Wind_Direction
333 325 4 325 2 4 27 139 90 221 184 185 166 200 208 202 188 174 157 174 191 203 215 171 180 186 339 36 13 258 281 337 305 321 333 337 339 335 345 2 358 352 338 332
339 25 357 303 301 338 250 278 148 126 132 202 202 218 202 216 245 127 132 142 124 143 23 87 92 80 35 56 352 339 336 343 299 272 257 302 320 310 264 279 310 5 343 317
355 350 332 350 260 222 283 185 70 22 356 149 189 208 231 215 123 89 93 89 119 124 9 317 279 253 236 219 243 283 278 307 305 304 318 313 291 297 305 300 234 263 296 312
287 358 38 277 314 359 62 35 96 99 82 89 94 91 70 69 86 75 77 56 67 126 245 249 252 252 240 235 230 238 253 254 260 269 258 276 295 289 291 302 309 307 290 267
73 326 278 352 23 37 80 48 40 59 52 69 81 68 36 27 50 57 38 8 319 309 298 298 291 274 252 243 228 228 235 240 241 241 252 252 249 238 221 211 267 287 304 304
45 1 315 27 331 347 102 65 46 51 53 62 58 56 322 1 16 17 13 3 349 336 335 337 323 325 312 285 261 246 232 226 225 227 222 238 239 221 181 197 216 205 277 282
145 211 299 344 331 316 46 156 7 69 61 55 64 123 340 19 24 13 2 351 343 336 321 312 323 331 318 308 294 265 256 246 234 226 222 217 220 188 155 159 177 255 266 260
143 203 296 338 0 60 66 296 36 45 47 48 41 19 27 17 360 345 347 353 341 329 322 332 334 339 330 322 325 332 317 288 251 238 223 201 180 168 163 161 197 220 223 262
129 198 232 308 313 94 106 55 35 37 23 29 28 12 2 333 332 14 3 353 333 321 320 319 327 331 319 313 319 318 313 302 300 287 234 196 179 172 179 175 181 224 221 226
1 38 17 9 356 30 28 52 46 44 35 26 9 357 354 349 323 312 338 329 313 324 309 304 311 318 309 308 308 301 293 288 287 277 267 248 207 170 188 177 184 207 220 226
112 89 201 194 200 194 61 50 50 31 11 342 343 8 11 356 351 356 346 335 325 313 310 317 318 307 303 298 295 290 286 284 278 270 232 221 227 200 189 194 177 193 215 212
202 189 120 127 63 67 73 57 61 1 349 34 39 15 360 338 327 326 321 318 315 318 313 310 307 302 302 298 289 282 277 272 267 266 252 215 206 206 188 189 183 206 204 188
105 46 53 86 83 79 78 52 35 26 47 29 13 350 350 341 333 331 324 321 319 311 305 302 298 300 295 295 287 273 267 267 259 250 246 220 187 185 161 73 194 179 180 176
77 67 50 66 56 81 82 64 36 33 24 11 5 19 354 340 338 333 324 316 310 308 306 301 302 299 299 292 279 271 263 257 250 242 237 211 192 178 169 153 156 137 176 159
9 4 59 67 46 60 78 62 40 7 10 7 9 5 352 332 331 327 317 317 317 308 305 308 307 304 310 300 286 279 272 259 240 225 219 198 175 171 164 155 152 144 127 122
144 231 50 47 48 53 77 55 29 12 4 350 356 351 332 322 327 324 317 312 317 322 316 317 311 313 316 310 301 295 292 286 221 196 190 171 163 162 161 159 148 152 156 148
44 34 42 42 40 45 97 82 33 36 1 349 347 329 320 317 318 327 321 317 312 311 311 317 319 322 323 324 325 330 338 7 56 92 123 142 147 155 156 149 144 138 139 146
31 6 48 60 41 50 57 55 46 32 345 332 323 311 317 320 314 313 315 317 315 320 327 329 327 329 335 341 346 355 7 20 41 71 92 104 114 123 124 122 124 124 119 107
5 4 11 62 58 53 39 7 1 345 318 307 311 311 304 302 306 305 309 324 327 341 339 336 331 333 342 345 352 8 19 31 49 60 77 90 91 94 101 103 105 108 106 101
10 10 25 49 58 51 311 284 314 311 317 318 295 300 309 311 312 312 323 317 330 333 323 329 341 339 340 349 356 11 23 33 45 52 61 73 81 86 88 89 91 93 97 95
345 330 321 305 280 252 250 244 286 274 268 294 288 289 296 303 302 310 325 327 337 337 331 335 348 342 341 353 360 13 19 34 47 52 61 69 78 82 88 92 93 92 93 92
341 322 302 317 300 290 272 250 241 258 271 265 266 279 275 296 310 306 249 300 327 341 335 345 340 346 350 358 9 23 30 36 46 53 65 73 78 82 83 83 86 88 93 96
290 294 306 300 277 271 270 270 252 227 252 259 257 248 248 246 278 297 315 328 329 332 333 337 339 352 358 6 16 26 35 40 45 52 61 64 68 72 79 86 88 94 101 110
327 352 324 310 312 312 320 320 310 292 247 272 248 227 254 309 310 201 260 328 338 340 347 339 348 360 0 5 19 31 40 48 47 49 55 59 66 71 71 79 83 84 90 85
352 348 355 357 6 337 338 327 322 329 311 299 232 190 133 144 333 297 294 310 4 337 333 346 348 358 9 15 29 36 40 46 58 70 65 60 60 67 67 68 73 78 82 84
27 9 9 358 358 347 333 325 309 309 326 352 38 5 348 307 269 356 278 297 346 341 359 346 341 360 29 36 50 47 47 47 56 64 68 67 70 74 76 75 74 76 77 76
28 26 2 357 359 6 4 2 358 19 31 358 341 320 306 301 305 289 308 243 281 289 82 343 353 12 11 44 49 51 56 55 56 59 61 71 68 69 69 73 75 77 76 70